T 2005 Nov. 20.441 TT MPC q 5.20585 (2000.0) P Q Peri. 115.255 -0.022181 -0.973973 Node 27.083 -0.998205 +0.009021 e 1.0 Incl. 150.300 +0.055631 -0.226485 From 38 observations 2006 June 19-22.
m1 = 10.0 + 5 logΔ + 10.0 log r